Skip to main content

NOAA/GLERL Met Station at Chicago, IL

Previous 5 days (top of hour only)
See also Previous 3 Hours (2 minute increments)
Jump down to Data
Switch to [English][Metric]
Zoom: Click and drag, Pan: shift-click and drag, Unzoom: double-click, Unzoom All




Note: Speed = mean wind during 2-minute period at top of hour,
Gust = max wind during 2-minute period at top of hour,
Peak = max wind during entire hour.
• See also 5-day windrose plot


NOAA/GLERL Met Station at Chicago, IL

Previous 5 days (top of hour only)
See also Previous 3 Hours (2 minute increments)
Jump up to Graphs
Switch to [English][Metric]
                  Wind  Wind  Wind   Air   Dew   Rel
                   Spd   Gst   Dir  Temp    Pt   Hum
YYYY-MM-DD   CST   kts   kts   deg     F     F     %
2020-01-25 00:00 -99.0 -99.0   -99   0.0   0.0   0.0
2020-01-24 09:00   8.7   9.1   116  35.4  35.5 100.2
2020-01-24 08:00   8.2   8.6   116  35.2  35.3 100.2
2020-01-24 07:00   9.7  10.3    97  35.4  35.5 100.2
2020-01-24 06:00   7.6   8.4    99  35.1  35.1 100.2
2020-01-24 05:00  11.1  11.7    98  35.1  35.1 100.2
2020-01-24 04:00  11.7  12.4    90  35.2  35.3 100.2
2020-01-24 03:00  12.8  14.0    76  35.6  35.7 100.2
2020-01-24 02:00  12.1  13.2    68  35.6  35.7 100.2
2020-01-24 01:00   9.5   9.7    73  35.2  35.3 100.2
2020-01-24 00:00   8.0   8.2    88  34.7  34.8 100.2
2020-01-23 23:00  13.6  15.0   112  35.6  34.3  95.0
2020-01-23 22:00  10.1  10.5    98  36.1  35.1  96.1
2020-01-23 21:00   8.2   8.6    85  35.1  34.4  97.3
2020-01-23 20:00  15.4  17.7   117  35.2  33.7  94.2
2020-01-23 19:00   7.8   8.7   121  33.6  33.7 100.2
2020-01-23 18:00   7.8   8.2   117  32.7  32.8 100.2
2020-01-23 17:00   8.7   9.3   129  32.7  32.8 100.2
2020-01-23 16:00   7.2   9.3   163  33.4  33.5 100.2
2020-01-23 15:00  10.7  11.5   166  33.4  33.5 100.2
2020-01-23 14:00  12.2  14.2   166  33.1  33.1 100.2
2020-01-23 13:00   9.3  10.9   163  32.5  32.6 100.2
2020-01-23 12:00  11.9  13.8   169  32.2  32.2 100.2
2020-01-23 11:00  10.9  11.9   171  31.6  31.7 100.2
2020-01-23 10:00  13.6  14.8   175  31.3  31.3 100.2
2020-01-23 09:00  15.7  16.5   181  31.5  31.4  99.8
2020-01-23 08:00  13.0  15.0   170  31.1  31.1 100.2
2020-01-23 07:00  13.0  15.0   172  30.7  30.8 100.2
2020-01-23 06:00  15.0  15.9   174  30.7  30.8 100.2
2020-01-23 05:00  15.6  16.9   176  30.4  30.4 100.2
2020-01-23 04:00  18.5  20.4   172  30.2  30.2 100.2
2020-01-23 03:00  15.6  17.3   176  30.2  30.2 100.2
2020-01-23 02:00  16.3  18.1   188  30.6  28.6  92.3
2020-01-23 01:00  21.0  23.1   188  33.8  22.4  62.6
2020-01-23 00:00  16.1  18.1   183  33.4  23.7  67.2
2020-01-22 23:00  19.6  22.6   186  33.6  22.7  64.0
2020-01-22 22:00  18.9  20.4   180  33.4  23.7  67.1
2020-01-22 21:00  17.3  18.7   180  33.3  24.3  69.3
2020-01-22 20:00  17.7  20.8   180  33.3  24.1  68.8
2020-01-22 19:00  17.9  21.0   177  33.4  26.4  75.0
2020-01-22 18:00  18.5  20.4   185  33.8  24.3  67.8
2020-01-22 17:00  20.2  22.0   178  34.3  26.0  71.3
2020-01-22 16:00  15.0  15.7   185  34.2  26.1  72.2
2020-01-22 15:00  12.8  14.0   174  34.0  25.5  70.7
2020-01-22 14:00  17.3  18.9   186  32.5  24.3  71.4
2020-01-22 13:00  19.8  21.6   185  31.5  23.1  71.0
2020-01-22 12:00  17.5  18.9   199  30.2  22.0  71.3
2020-01-22 11:00  22.0  23.9   204  28.9  21.1  72.3
2020-01-22 10:00  21.8  24.5   206  27.5  20.5  74.8
2020-01-22 09:00  18.9  21.2   205  26.4  21.0  79.9
2020-01-22 08:00  16.9  19.4   211  26.1  21.3  82.0
2020-01-22 07:00  21.4  24.5   208  26.1  21.1  81.2
2020-01-22 06:00  21.8  24.3   203  26.2  21.1  80.6
2020-01-22 05:00  23.9  27.2   199  26.4  20.9  79.5
2020-01-22 04:00  21.2  23.5   203  26.2  22.2  84.4
2020-01-22 03:00  21.6  23.9   209  26.2  22.3  84.8
2020-01-22 02:00  22.2  25.3   209  26.4  22.5  85.1
2020-01-22 01:00  23.5  27.0   203  26.8  22.9  85.0
2020-01-22 00:00  22.2  24.9   201  27.0  23.1  85.1
2020-01-21 23:00  19.8  22.7   198  27.5  23.4  84.4
2020-01-21 22:00  22.4  26.2   197  27.9  23.2  82.4
2020-01-21 21:00  21.4  23.9   197  28.6  22.9  78.9
2020-01-21 20:00  18.1  20.2   197  29.1  23.2  78.4
2020-01-21 19:00  17.9  19.4   194  29.3  22.3  75.0
2020-01-21 18:00  15.4  16.7   203  28.9  22.0  74.9
2020-01-21 17:00  15.2  16.9   209  29.8  19.9  66.3
2020-01-21 16:00  12.1  13.4   214  30.4  19.7  64.3
2020-01-21 15:00   9.9  11.9   246  30.0  18.0  60.6
2020-01-21 14:00   9.5  10.5   218  29.7  18.3  62.3
2020-01-21 13:00  11.1  13.0   222  29.3  18.8  64.5
2020-01-21 12:00  13.0  14.0   211  27.9  18.7  68.3
2020-01-21 11:00   4.5   5.4   217  26.4  17.5  68.7
2020-01-21 10:00   9.7  10.5   258  24.8  17.1  72.1
2020-01-21 09:00   8.7   9.5   267  23.5  18.1  79.6
2020-01-21 08:00   7.2   8.2   263  23.9  18.0  77.9
2020-01-21 07:00   6.2   7.2   254  23.0  17.6  79.6
2020-01-21 06:00   7.8   9.1   274  22.1  17.5  82.4
2020-01-21 05:00   8.0   9.1   284  21.7  17.9  85.0
2020-01-21 04:00   8.4   9.1   272  22.3  17.7  82.2
2020-01-21 03:00   9.1   9.9   288  22.8  17.6  80.3
2020-01-21 02:00  10.1  11.5   292  23.2  17.2  77.7
2020-01-21 01:00   6.2   6.8   295  22.8  17.8  80.7
2020-01-21 00:00   9.7  10.7   310  23.4  17.2  77.0
2020-01-20 23:00   9.7  11.5   305  23.9  18.3  78.8
2020-01-20 22:00   9.1  10.5   306  24.4  19.0  79.7
2020-01-20 21:00  12.4  14.2   308  25.5  19.4  77.2
2020-01-20 20:00  11.5  12.2   333  27.1  19.2  71.7
2020-01-20 19:00   9.3  10.7   351  27.5  20.9  76.1
2020-01-20 18:00  11.5  12.4   359  27.5  21.2  76.8
2020-01-20 17:00  10.3  11.9   353  27.9  21.5  76.7
2020-01-20 16:00  10.1  10.7   356  27.9  20.9  74.8
2020-01-20 15:00  12.6  14.0   360  28.2  21.8  76.5
2020-01-20 14:00  13.8  15.4   344  28.6  23.7  81.7
2020-01-20 13:00  10.5  11.3   345  29.1  22.0  74.6
2020-01-20 12:00  15.4  16.7   336  28.0  26.7  94.8
2020-01-20 11:00  17.3  18.5   333  27.0  26.6  98.5
2020-01-20 10:00  15.7  17.3   322  26.1  25.3  97.0
2020-01-20 09:00  17.3  18.9   317  25.3  23.9  94.3
2020-01-20 08:00  15.9  17.1   318  26.2  24.8  94.3
2020-01-20 07:00   9.7  11.7   283  24.1  20.2  84.8
2020-01-20 06:00   9.3  11.1   311  26.6  23.7  88.5
2020-01-20 05:00   6.8   9.5   329  26.1  25.2  96.5
2020-01-20 04:00  11.9  14.6   316  24.4  21.9  90.0
2020-01-20 03:00  12.6  14.6   314  23.9  20.1  85.2
2020-01-20 02:00  17.1  19.6   319  24.1  19.1  81.2
2020-01-20 01:00  14.0  15.2   304  23.5  18.7  81.7
2020-01-20 00:00  13.6  15.6   306  23.0  17.8  80.1
2020-01-19 23:00  16.7  19.1   302  22.3  17.2  80.5
2020-01-19 22:00  16.9  19.4   301  21.9  16.3  78.6
2020-01-19 21:00  14.4  15.6   305  21.2  15.4  78.2
2020-01-19 20:00  15.6  17.7   302  21.0  14.8  76.8
2020-01-19 19:00  17.3  20.4   293  21.4  16.0  79.5
2020-01-19 18:00  17.3  18.7   293  21.2  14.9  76.4